Starlink 32680

operational
NORAD ID: 62423 Int'l Des: 2024-249 Owner: SPXS Country: US Constellation: starlink
LEOCIRCULAR

关于 Starlink 32680

正在加载描述...

实时位置

正在加载3D地球...

即将过境

高度历史

Altitude vs Time

uPlot chart will show altitude changes over time

两行轨道根数

1 62423U 24249Q 25258.27061884 .00073311 00000-0 26422-2 0 9999
2 62423 43.0006 224.9105 0001450 266.5211 93.5475 15.27643053 40988
Epoch: Sep 15, 2025 • Age: 12 hours

当前状态

高度 482.0 km
速度 7.63 km/s
星下点 13.55°N, 119.67°E
发射日期 Dec 23, 2024
运行时间 0.7 years
类型 internet

技术详情

分类 Payload
质量 730.00 kg
干质量 700.00 kg
总质量 730.00 kg
长度 0.30 m
直径 4.10 m
跨度 29.00 m
形状 Box + pan
制造商 SPXS
平台类型 Starlink V2M
阶段状态 In Orbit
所有者/国家 SPXS/US

大型星座

Loading constellations...